This is the latest recevied weather packets stored in our database for station/object SR1WXW. If no packets are shown the sender has not sent any weather packets the latest 1 day(s).
| Time | Temp. | Humidity | Pressure | Rain* | Wind** | Luminosity | Snow |
|---|---|---|---|---|---|---|---|
| 1778060579 | 7.78° C | 93% | 1000.9 hPa | 0 mm | - | - | - |
| 1778060279 | 7.78° C | 93% | 1000.8 hPa | 0 mm | - | - | - |
| 1778059979 | 7.78° C | 93% | 1000.8 hPa | 0.51 mm | - | - | - |
| 1778059679 | 7.78° C | 93% | 1000.8 hPa | 0.51 mm | - | - | - |
| 1778059379 | 7.78° C | 93% | 1000.8 hPa | 0.51 mm | - | - | - |
| 1778059079 | 7.78° C | 93% | 1000.8 hPa | 1.02 mm | - | - | - |
| 1778058779 | 7.78° C | 93% | 1000.8 hPa | 1.52 mm | - | - | - |
| 1778058479 | 7.78° C | 93% | 1000.8 hPa | 2.54 mm | - | - | - |
| 1778058179 | 7.78° C | 93% | 1000.7 hPa | 3.05 mm | - | - | - |
| 1778057879 | 7.78° C | 93% | 1000.8 hPa | 3.56 mm | - | - | - |
| 1778057579 | 7.78° C | 93% | 1000.7 hPa | 4.06 mm | - | - | - |
| 1778057279 | 7.78° C | 93% | 1000.6 hPa | 5.59 mm | - | - | - |
| 1778056979 | 7.78° C | 93% | 1000.7 hPa | 6.1 mm | - | - | - |
| 1778056679 | 7.78° C | 93% | 1000.6 hPa | 7.11 mm | - | - | - |
| 1778056379 | 7.78° C | 93% | 1000.8 hPa | 8.13 mm | - | - | - |
| 1778056079 | 7.78° C | 93% | 1000.8 hPa | 8.64 mm | - | - | - |
| 1778055779 | 7.78° C | 93% | 1000.7 hPa | 9.14 mm | - | - | - |
| 1778055479 | 7.78° C | 93% | 1000.8 hPa | 9.14 mm | - | - | - |
| 1778055179 | 7.78° C | 93% | 1000.8 hPa | 8.64 mm | - | - | - |
| 1778054879 | 7.22° C | 93% | 1000.9 hPa | 8.13 mm | - | - | - |
| 1778054579 | 7.22° C | 93% | 1000.9 hPa | 8.13 mm | - | - | - |
| 1778054279 | 7.22° C | 93% | 1000.9 hPa | 8.13 mm | - | - | - |
| 1778053979 | 7.22° C | 92% | 1000.8 hPa | 7.62 mm | - | - | - |
| 1778053379 | 7.22° C | 92% | 1000.9 hPa | 6.1 mm | - | - | - |
| 1778053079 | 7.22° C | 92% | 1000.9 hPa | 5.59 mm | - | - | - |
* Rain latest hour (hover to see other rain measurements)
** Current wind speed in m/s (hover to see current wind gust speed)